Location: Newark
(34.1333°N, 7.9667°W)
Time: 22:45:06
(UTC+00:00)

Transit 2A - Pass Details

Date: 13 June 2021
Orbit: 598 x 960 km, 66.7° (Epoch: 24 July)

Event Time Altitude Azimuth Distance (km) Brightness Sun altitude
Rises 19:19:52 0° 251° (WSW) 2,873 9.7 3.7°
Reaches altitude 10° 19:23:13 10° 278° (W) 1,945 9.8 3.1°
Maximum altitude 19:25:24 14° 308° (NW) 1,713 9.7 2.6°
Drops below altitude 10° 19:27:36 10° 339° (NNW) 1,941 8.9 2.2°
Sets 19:30:57 0° 6° (N) 2,864 9.3 1.6°
